TRA38C EHRD-LOWI

Flight info

Callsign TRA38C
Flight time N/A
Altitude 39000
Route WOODY2A/06 WOODY N872 NIK M624 BUB DCT LIRSU DCT KRH DCT BATUB/N0438F310 M738 MADEB MADEB1B
Aircraft B738/M-SDE2E3FGHIRWXY/LB1

Departure

Time N/A
Airport Rotterdam The Hague Airport (EHRD)

Arrival

Time 2026-05-05 19:07
Airport Innsbruck Airport (LOWI)
Time Latitude Longitude Altitude Speed Heading
2026-05-05 18:08 51.27664 4.26870 25832 ft 404 kts 205°
2026-05-05 18:08 51.25091 4.24911 26354 ft 406 kts 204°
2026-05-05 18:08 51.22681 4.23081 26830 ft 408 kts 205°
2026-05-05 18:09 51.20047 4.21430 27303 ft 408 kts 193°
2026-05-05 18:09 51.17409 4.20970 27727 ft 410 kts 178°
2026-05-05 18:09 51.14582 4.21764 28153 ft 413 kts 162°
2026-05-05 18:09 51.12399 4.23403 28514 ft 417 kts 149°
2026-05-05 18:10 51.10341 4.25945 28904 ft 420 kts 139°
2026-05-05 18:10 51.08303 4.29145 29291 ft 423 kts 138°
2026-05-05 18:10 51.04804 4.34317 29922 ft 425 kts 141°
2026-05-05 18:10 51.00305 4.40382 30596 ft 429 kts 142°
2026-05-05 18:11 50.96114 4.45901 31222 ft 432 kts 142°
2026-05-05 18:11 50.91627 4.52313 31979 ft 434 kts 135°
2026-05-05 18:11 50.87936 4.59834 32800 ft 436 kts 127°
2026-05-05 18:11 50.84737 4.68020 33639 ft 434 kts 123°
2026-05-05 18:12 50.81898 4.76189 34378 ft 433 kts 122°
2026-05-05 18:12 50.80032 4.81503 34717 ft 435 kts 123°
2026-05-05 18:12 50.78564 4.85587 35027 ft 435 kts 123°
2026-05-05 18:12 50.77062 4.89724 35309 ft 436 kts 123°
2026-05-05 18:13 50.75549 4.93866 35623 ft 436 kts 123°
2026-05-05 18:13 50.74010 4.98059 35911 ft 437 kts 123°
2026-05-05 18:13 50.72495 5.02207 36201 ft 438 kts 122°
2026-05-05 18:13 50.71109 5.06097 36448 ft 438 kts 122°
2026-05-05 18:14 50.69604 5.10272 36725 ft 439 kts 123°
2026-05-05 18:14 50.68086 5.14447 36982 ft 439 kts 123°
2026-05-05 18:14 50.66560 5.18619 37268 ft 439 kts 123°
2026-05-05 18:14 50.65026 5.22790 37507 ft 440 kts 123°
2026-05-05 18:15 50.63507 5.26911 37872 ft 437 kts 123°
2026-05-05 18:15 50.62054 5.30841 38080 ft 439 kts 123°
2026-05-05 18:15 50.60537 5.34936 38247 ft 441 kts 123°
2026-05-05 18:15 50.58978 5.39136 38496 ft 441 kts 123°
2026-05-05 18:16 50.57432 5.43293 38694 ft 442 kts 123°
2026-05-05 18:16 50.55871 5.47482 38826 ft 445 kts 123°
2026-05-05 18:16 50.54305 5.51678 38835 ft 446 kts 123°
2026-05-05 18:17 50.51167 5.60066 38844 ft 444 kts 123°
2026-05-05 18:17 50.48040 5.68395 38844 ft 440 kts 123°
2026-05-05 18:18 50.44944 5.76617 38844 ft 441 kts 123°
2026-05-05 18:18 50.41836 5.84844 38842 ft 440 kts 123°
2026-05-05 18:19 50.38650 5.93160 38839 ft 439 kts 126°
2026-05-05 18:19 50.34821 6.00529 38837 ft 436 kts 135°
2026-05-05 18:20 50.30648 6.07399 38829 ft 435 kts 136°
2026-05-05 18:20 50.26471 6.14178 38818 ft 435 kts 136°
2026-05-05 18:21 50.22266 6.20982 38811 ft 435 kts 136°
2026-05-05 18:21 50.18052 6.27780 38802 ft 435 kts 136°
2026-05-05 18:22 50.13849 6.34542 38795 ft 435 kts 136°
2026-05-05 18:22 50.09595 6.41428 38792 ft 436 kts 136°
2026-05-05 18:23 50.05470 6.48159 38790 ft 435 kts 136°
2026-05-05 18:23 50.01276 6.54937 38790 ft 435 kts 136°
2026-05-05 18:24 49.97064 6.61705 38791 ft 435 kts 136°
2026-05-05 18:24 49.92852 6.68445 38790 ft 435 kts 136°
2026-05-05 18:25 49.88628 6.75182 38791 ft 435 kts 137°
2026-05-05 18:25 49.84480 6.81779 38793 ft 435 kts 137°
2026-05-05 18:26 49.80251 6.88486 38797 ft 435 kts 137°
2026-05-05 18:26 49.76020 6.95178 38805 ft 436 kts 137°
2026-05-05 18:27 49.71945 7.01607 38813 ft 435 kts 137°
2026-05-05 18:27 49.67672 7.08329 38820 ft 436 kts 137°
2026-05-05 18:28 49.61290 7.18337 38826 ft 435 kts 137°
2026-05-05 18:28 49.57120 7.24854 38828 ft 436 kts 137°
2026-05-05 18:29 49.52890 7.31449 38822 ft 435 kts 138°
2026-05-05 18:29 49.48634 7.38067 38815 ft 435 kts 138°
2026-05-05 18:30 49.44371 7.44677 38805 ft 435 kts 138°
2026-05-05 18:30 49.40115 7.51261 38795 ft 434 kts 138°
2026-05-05 18:31 49.35846 7.57847 38792 ft 435 kts 138°
2026-05-05 18:31 49.31566 7.64432 38793 ft 435 kts 138°
2026-05-05 18:32 49.27306 7.70968 38796 ft 435 kts 138°
2026-05-05 18:32 49.23028 7.77518 38799 ft 435 kts 138°
2026-05-05 18:33 49.18740 7.84065 38801 ft 435 kts 138°
2026-05-05 18:33 49.14475 7.90561 38805 ft 435 kts 138°
2026-05-05 18:34 49.10324 7.96865 38808 ft 436 kts 138°
2026-05-05 18:34 49.06030 8.03373 38811 ft 435 kts 139°
2026-05-05 18:35 49.01804 8.09758 38813 ft 435 kts 139°
2026-05-05 18:35 48.97575 8.16132 38814 ft 436 kts 139°
2026-05-05 18:36 48.93258 8.22623 38815 ft 436 kts 139°
2026-05-05 18:36 48.88955 8.29078 38815 ft 436 kts 139°
2026-05-05 18:37 48.84652 8.35515 38815 ft 436 kts 139°
2026-05-05 18:37 48.80321 8.41977 38815 ft 436 kts 139°
2026-05-05 18:38 48.75978 8.48442 38817 ft 436 kts 139°
2026-05-05 18:38 48.71666 8.54843 38817 ft 436 kts 139°
2026-05-05 18:39 48.67326 8.61269 38819 ft 436 kts 139°
2026-05-05 18:39 48.63160 8.67422 38819 ft 437 kts 139°
2026-05-05 18:40 48.58817 8.73822 38820 ft 436 kts 140°
2026-05-05 18:40 48.54454 8.80235 38820 ft 436 kts 140°
2026-05-05 18:41 48.50208 8.86461 38820 ft 437 kts 140°
2026-05-05 18:41 48.45847 8.92839 38824 ft 436 kts 140°
2026-05-05 18:42 48.41508 8.99170 38823 ft 429 kts 140°
2026-05-05 18:42 48.39389 9.02255 38820 ft 417 kts 140°
2026-05-05 18:42 48.37342 9.05233 38820 ft 408 kts 140°
2026-05-05 18:43 48.33309 9.11089 38826 ft 401 kts 140°
2026-05-05 18:43 48.29282 9.16924 38806 ft 403 kts 140°
2026-05-05 18:44 48.27251 9.19860 38196 ft 410 kts 140°
2026-05-05 18:44 48.25169 9.22875 37214 ft 421 kts 140°
2026-05-05 18:44 48.23072 9.25978 36379 ft 427 kts 140°
2026-05-05 18:44 48.20934 9.29103 35647 ft 429 kts 140°
2026-05-05 18:45 48.18847 9.32121 35197 ft 424 kts 141°
2026-05-05 18:45 48.16736 9.35159 34778 ft 419 kts 141°
2026-05-05 18:45 48.14663 9.38132 34332 ft 414 kts 142°
2026-05-05 18:45 48.12598 9.41089 33869 ft 410 kts 142°
2026-05-05 18:46 48.10525 9.44055 33384 ft 407 kts 141°
2026-05-05 18:46 48.08677 9.46700 32935 ft 404 kts 141°
2026-05-05 18:46 48.06649 9.49599 32449 ft 402 kts 141°
2026-05-05 18:46 48.04634 9.52480 31974 ft 399 kts 141°
2026-05-05 18:47 48.02641 9.55320 31519 ft 395 kts 142°
2026-05-05 18:47 48.00537 9.57927 31021 ft 391 kts 147°
2026-05-05 18:47 47.98365 9.60330 30535 ft 388 kts 149°
2026-05-05 18:47 47.96152 9.62677 30054 ft 386 kts 149°
2026-05-05 18:48 47.93976 9.64991 29629 ft 384 kts 148°
2026-05-05 18:48 47.91865 9.67244 29209 ft 382 kts 148°
2026-05-05 18:48 47.89679 9.69582 28798 ft 379 kts 148°
2026-05-05 18:48 47.87537 9.71874 28385 ft 377 kts 148°
2026-05-05 18:49 47.85411 9.74150 27967 ft 375 kts 148°
2026-05-05 18:49 47.83295 9.76414 27555 ft 374 kts 148°
2026-05-05 18:49 47.81203 9.78652 27158 ft 371 kts 148°
2026-05-05 18:49 47.79116 9.80885 26763 ft 369 kts 147°
2026-05-05 18:50 47.77110 9.83027 26369 ft 368 kts 147°
2026-05-05 18:50 47.75065 9.85211 25967 ft 366 kts 147°
2026-05-05 18:50 47.72991 9.87447 25569 ft 364 kts 147°
2026-05-05 18:50 47.70958 9.89649 25182 ft 362 kts 147°
2026-05-05 18:51 47.68962 9.91822 24790 ft 360 kts 147°
2026-05-05 18:51 47.66910 9.94043 24371 ft 359 kts 147°
2026-05-05 18:51 47.64876 9.96222 23994 ft 357 kts 147°
2026-05-05 18:51 47.62893 9.98336 23616 ft 355 kts 147°
2026-05-05 18:52 47.60904 10.00448 23230 ft 353 kts 147°
2026-05-05 18:52 47.58892 10.02580 22825 ft 352 kts 147°
2026-05-05 18:52 47.56914 10.04672 22459 ft 350 kts 147°
2026-05-05 18:52 47.54905 10.06796 22085 ft 348 kts 147°
2026-05-05 18:53 47.52935 10.08876 21611 ft 349 kts 147°
2026-05-05 18:53 47.50961 10.10959 20869 ft 358 kts 147°
2026-05-05 18:53 47.48915 10.13117 20122 ft 366 kts 147°
2026-05-05 18:53 47.46827 10.15320 19372 ft 372 kts 147°
2026-05-05 18:54 47.44717 10.17548 18704 ft 376 kts 147°
2026-05-05 18:54 47.42580 10.19699 18562 ft 364 kts 150°
2026-05-05 18:54 47.40429 10.21671 17980 ft 365 kts 152°
2026-05-05 18:54 47.38235 10.23604 17229 ft 371 kts 152°
2026-05-05 18:55 47.36013 10.25613 16478 ft 376 kts 151°
2026-05-05 18:55 47.33909 10.27980 15754 ft 383 kts 141°
2026-05-05 18:55 47.32226 10.31004 15383 ft 384 kts 124°
2026-05-05 18:55 47.31325 10.34449 15254 ft 378 kts 105°
2026-05-05 18:56 47.30990 10.38246 15178 ft 367 kts 99°
2026-05-05 18:56 47.30651 10.41870 15101 ft 352 kts 103°
2026-05-05 18:56 47.30194 10.45353 15027 ft 340 kts 105°
2026-05-05 18:56 47.29723 10.48708 14963 ft 329 kts 105°
2026-05-05 18:57 47.29269 10.51956 14890 ft 319 kts 105°
2026-05-05 18:57 47.28840 10.55074 14826 ft 310 kts 105°
2026-05-05 18:57 47.28624 10.57181 14777 ft 306 kts 99°
2026-05-05 18:57 47.28599 10.60289 14722 ft 300 kts 91°
2026-05-05 18:58 47.28873 10.64278 14572 ft 294 kts 84°
2026-05-05 18:58 47.29150 10.67278 14121 ft 300 kts 88°
2026-05-05 18:58 47.29333 10.70389 13576 ft 309 kts 89°
2026-05-05 18:58 47.29479 10.73567 12844 ft 313 kts 90°
2026-05-05 18:59 47.29625 10.76781 12005 ft 316 kts 90°
2026-05-05 18:59 47.29726 10.78951 11336 ft 321 kts 89°
2026-05-05 18:59 47.29879 10.82290 10335 ft 327 kts 89°
2026-05-05 18:59 47.29973 10.84476 9684 ft 329 kts 88°
2026-05-05 19:00 47.30069 10.86617 9059 ft 331 kts 87°
2026-05-05 19:00 47.30230 10.90021 8063 ft 333 kts 86°
2026-05-05 19:01 47.30401 10.93403 7217 ft 329 kts 85°
2026-05-05 19:01 47.30561 10.96679 6919 ft 307 kts 85°
2026-05-05 19:01 47.30702 10.99673 6779 ft 282 kts 85°
2026-05-05 19:01 47.30835 11.02458 6517 ft 262 kts 85°
2026-05-05 19:02 47.30933 11.05054 6331 ft 244 kts 89°
2026-05-05 19:02 47.30822 11.07448 6158 ft 227 kts 99°
2026-05-05 19:02 47.30348 11.09577 5996 ft 210 kts 114°
2026-05-05 19:02 47.29737 11.11444 5686 ft 206 kts 118°
2026-05-05 19:03 47.29058 11.13383 5007 ft 218 kts 118°
2026-05-05 19:03 47.28358 11.15430 4343 ft 228 kts 117°
2026-05-05 19:03 47.27682 11.17452 4012 ft 208 kts 117°
2026-05-05 19:03 47.27278 11.18671 3818 ft 194 kts 117°
2026-05-05 19:04 47.26884 11.19859 3643 ft 180 kts 117°
2026-05-05 19:04 47.26377 11.21390 3519 ft 152 kts 118°
2026-05-05 19:04 47.25945 11.22693 3347 ft 138 kts 118°
2026-05-05 19:05 47.25551 11.23969 3317 ft 138 kts 112°
2026-05-05 19:05 47.25305 11.25289 3243 ft 135 kts 103°
2026-05-05 19:05 47.25253 11.26711 2873 ft 146 kts 92°
2026-05-05 19:05 47.25377 11.28206 2598 ft 148 kts 86°
2026-05-05 19:06 47.25525 11.29668 2450 ft 141 kts 84°
2026-05-05 19:06 47.25681 11.31102 2255 ft 138 kts 85°
2026-05-05 19:06 47.25816 11.32458 2072 ft 136 kts 84°
2026-05-05 19:06 47.25968 11.33811 1909 ft 130 kts 88°
2026-05-05 19:07 47.26066 11.34779 1908 ft 59 kts 84°
2026-05-05 19:07 47.26093 11.35038 1908 ft 2 kts 78°
2026-05-05 19:07 47.26099 11.35087 1908 ft 11 kts 79°
2026-05-05 19:07 47.26102 11.35193 1908 ft 10 kts 105°
2026-05-05 19:08 47.26059 11.35252 1908 ft 10 kts 160°
2026-05-05 19:08 47.25978 11.35278 1908 ft 14 kts 168°
2026-05-05 19:08 47.25955 11.35285 1908 ft 2 kts 169°
2026-05-05 19:08 47.25924 11.35282 1908 ft 8 kts 205°
2026-05-05 19:09 47.25903 11.35253 1908 ft 0 kts 220°
2026-05-05 19:09 47.25902 11.35251 1908 ft 1 kts 220°
2026-05-05 19:09 47.25887 11.35232 1908 ft 9 kts 217°
2026-05-05 19:09 47.25855 11.35224 1908 ft 1 kts 169°
2026-05-05 19:10 47.25845 11.35228 1908 ft 1 kts 170°
2026-05-05 19:10 47.25844 11.35228 1908 ft 0 kts 170°
2026-05-05 19:14 47.25843 11.35228 1908 ft 0 kts 170°